Location: Unspecified
(0.0000°N, 0.0000°E)
Time: 18:51:38
(UTC+00:00)

STARS - Pass Details

Date: 11 December 2017
Orbit: 626 x 640 km, 98.3° (Epoch: 24 June)

Event Time Altitude Azimuth Distance (km) Brightness Sun altitude
Rises 04:58:14 0° 148° (SSE) 2,941 ? -12.6°
Reaches altitude 10° 05:00:43 10° 135° (SE) 2,029 ? -12.1°
Maximum altitude 05:04:26 27° 78° (ENE) 1,233 ? -11.2°
Drops below altitude 10° 05:08:08 10° 20° (NNE) 2,016 ? -10.4°
Sets 05:10:35 0° 8° (N) 2,918 ? -9.8°
